Year,Month,Day,Hour,Minute,Value (Times are PST for temperature in C)
2008,06,25,00,00,11.80
2008,06,25,00,01,11.80
2008,06,25,00,02,11.80
2008,06,25,00,03,11.80
2008,06,25,00,04,11.80
2008,06,25,00,05,11.80
2008,06,25,00,06,11.80
2008,06,25,00,07,11.70
2008,06,25,00,08,11.70
2008,06,25,00,09,11.70
2008,06,25,00,10,11.70
2008,06,25,00,11,11.70
2008,06,25,00,12,11.70
2008,06,25,00,13,11.60
2008,06,25,00,14,11.60
2008,06,25,00,15,11.60
2008,06,25,00,16,11.60
2008,06,25,00,17,11.60
2008,06,25,00,18,11.60
2008,06,25,00,19,11.60
2008,06,25,00,20,11.60
2008,06,25,00,21,11.60
2008,06,25,00,22,11.60
2008,06,25,00,23,11.60
2008,06,25,00,24,11.60
2008,06,25,00,25,11.60
2008,06,25,00,26,11.60
2008,06,25,00,27,11.60
2008,06,25,00,28,11.60
2008,06,25,00,29,11.60
2008,06,25,00,30,11.60
2008,06,25,00,31,11.60
2008,06,25,00,32,11.60
2008,06,25,00,33,11.60
2008,06,25,00,34,11.60
2008,06,25,00,35,11.60
2008,06,25,00,36,11.60
2008,06,25,00,37,11.60
2008,06,25,00,38,11.50
2008,06,25,00,39,11.40
2008,06,25,00,40,11.40
2008,06,25,00,41,11.40
2008,06,25,00,42,11.40
2008,06,25,00,43,11.40
2008,06,25,00,44,11.40
2008,06,25,00,45,11.40
2008,06,25,00,46,11.40
2008,06,25,00,47,11.30
2008,06,25,00,48,11.30
2008,06,25,00,49,11.30
2008,06,25,00,50,11.30
2008,06,25,00,51,11.30
2008,06,25,00,52,11.30
2008,06,25,00,53,11.30
2008,06,25,00,54,11.30
2008,06,25,00,55,11.30
2008,06,25,00,56,11.20
2008,06,25,00,57,11.20
2008,06,25,00,58,11.20
2008,06,25,00,59,11.20
2008,06,25,01,00,11.10
2008,06,25,01,01,11.10
2008,06,25,01,02,11.10
2008,06,25,01,03,11.10
2008,06,25,01,04,11.10
2008,06,25,01,05,11.10
2008,06,25,01,06,11.10
2008,06,25,01,07,11.10
2008,06,25,01,08,11.10
2008,06,25,01,09,11.10
2008,06,25,01,10,11.10
2008,06,25,01,11,11.10
2008,06,25,01,12,11.10
2008,06,25,01,13,11.00
2008,06,25,01,14,10.90
2008,06,25,01,15,10.90
2008,06,25,01,16,10.90
2008,06,25,01,17,10.90
2008,06,25,01,18,10.90
2008,06,25,01,19,10.90
2008,06,25,01,20,10.90
2008,06,25,01,21,10.90
2008,06,25,01,22,10.90
2008,06,25,01,23,10.90
2008,06,25,01,24,10.90
2008,06,25,01,25,10.90
2008,06,25,01,26,10.90
2008,06,25,01,27,10.90
2008,06,25,01,28,10.90
2008,06,25,01,29,10.90
2008,06,25,01,30,10.90
2008,06,25,01,31,10.90
2008,06,25,01,32,10.90
2008,06,25,01,33,10.90
2008,06,25,01,34,10.90
2008,06,25,01,35,10.90
2008,06,25,01,36,10.90
2008,06,25,01,37,10.90
2008,06,25,01,38,10.90
2008,06,25,01,39,10.90
2008,06,25,01,40,10.90
2008,06,25,01,41,10.90
2008,06,25,01,42,10.90
2008,06,25,01,43,10.90
2008,06,25,01,44,10.90
2008,06,25,01,45,10.90
2008,06,25,01,46,10.90
2008,06,25,01,47,10.90
2008,06,25,01,48,10.90
2008,06,25,01,49,10.90
2008,06,25,01,50,10.90
2008,06,25,01,51,10.90
2008,06,25,01,52,10.90
2008,06,25,01,53,10.90
2008,06,25,01,54,10.90
2008,06,25,01,55,10.90
2008,06,25,01,56,10.90
2008,06,25,01,57,10.90
2008,06,25,01,58,10.90
2008,06,25,01,59,10.90
2008,06,25,02,00,10.90
2008,06,25,02,01,10.90
2008,06,25,02,02,10.90
2008,06,25,02,03,10.90
2008,06,25,02,04,10.90
2008,06,25,02,05,10.90
2008,06,25,02,06,10.90
2008,06,25,02,07,10.90
2008,06,25,02,08,10.80
2008,06,25,02,09,10.80
2008,06,25,02,10,10.80
2008,06,25,02,11,10.80
2008,06,25,02,12,10.80
2008,06,25,02,13,10.80
2008,06,25,02,14,10.80
2008,06,25,02,15,10.70
2008,06,25,02,16,10.70
2008,06,25,02,17,10.70
2008,06,25,02,18,10.70
2008,06,25,02,19,10.70
2008,06,25,02,20,10.60
2008,06,25,02,21,10.60
2008,06,25,02,22,10.60
2008,06,25,02,23,10.60
2008,06,25,02,24,10.60
2008,06,25,02,25,10.60
2008,06,25,02,26,10.60
2008,06,25,02,27,10.60
2008,06,25,02,28,10.60
2008,06,25,02,29,10.60
2008,06,25,02,30,10.60
2008,06,25,02,31,10.60
2008,06,25,02,32,10.60
2008,06,25,02,33,10.60
2008,06,25,02,34,10.60
2008,06,25,02,35,10.60
2008,06,25,02,36,10.60
2008,06,25,02,37,10.60
2008,06,25,02,38,10.60
2008,06,25,02,39,10.60
2008,06,25,02,40,10.60
2008,06,25,02,41,10.60
2008,06,25,02,42,10.60
2008,06,25,02,43,10.60
2008,06,25,02,44,10.60
2008,06,25,02,45,10.60
2008,06,25,02,46,10.60
2008,06,25,02,47,10.60
2008,06,25,02,48,10.60
2008,06,25,02,49,10.60
2008,06,25,02,50,10.50
2008,06,25,02,51,10.40
2008,06,25,02,52,10.40
2008,06,25,02,53,10.40
2008,06,25,02,54,10.40
2008,06,25,02,55,10.40
2008,06,25,02,56,10.40
2008,06,25,02,57,10.40
2008,06,25,02,58,10.40
2008,06,25,02,59,10.40
2008,06,25,03,00,10.30
2008,06,25,03,01,10.30
2008,06,25,03,02,10.30
2008,06,25,03,03,10.30
2008,06,25,03,04,10.20
2008,06,25,03,05,10.20
2008,06,25,03,06,10.20
2008,06,25,03,07,10.20
2008,06,25,03,08,10.20
2008,06,25,03,09,10.10
2008,06,25,03,10,10.10
2008,06,25,03,11,10.10
2008,06,25,03,12,10.10
2008,06,25,03,13,10.10
2008,06,25,03,14,10.10
2008,06,25,03,15,10.10
2008,06,25,03,16,10.10
2008,06,25,03,17,10.10
2008,06,25,03,18,10.10
2008,06,25,03,19,10.10
2008,06,25,03,20,10.10
2008,06,25,03,21,10.10
2008,06,25,03,22,10.10
2008,06,25,03,23,10.10
2008,06,25,03,24,10.10
2008,06,25,03,25,10.10
2008,06,25,03,26,10.10
2008,06,25,03,27,10.10
2008,06,25,03,28,10.10
2008,06,25,03,29,10.10
2008,06,25,03,30,10.10
2008,06,25,03,31,10.10
2008,06,25,03,32,10.10
2008,06,25,03,33,10.10
2008,06,25,03,34,10.10
2008,06,25,03,35,10.10
2008,06,25,03,36,10.10
2008,06,25,03,37,10.10
2008,06,25,03,38,10.10
2008,06,25,03,39,10.10
2008,06,25,03,40,10.10
2008,06,25,03,41,10.10
2008,06,25,03,42,10.10
2008,06,25,03,43,10.10
2008,06,25,03,44,10.00
2008,06,25,03,45,9.90
2008,06,25,03,46,9.90
2008,06,25,03,47,9.90
2008,06,25,03,48,9.90
2008,06,25,03,49,9.90
2008,06,25,03,50,9.90
2008,06,25,03,51,9.90
2008,06,25,03,52,9.90
2008,06,25,03,53,9.80
2008,06,25,03,54,9.80
2008,06,25,03,55,9.80
2008,06,25,03,56,9.70
2008,06,25,03,57,9.70
2008,06,25,03,58,9.70
2008,06,25,03,59,9.70
2008,06,25,04,00,9.60
2008,06,25,04,01,9.60
2008,06,25,04,02,9.60
2008,06,25,04,03,9.60
2008,06,25,04,04,9.50
2008,06,25,04,05,9.50
2008,06,25,04,06,9.50
2008,06,25,04,07,9.50
2008,06,25,04,08,9.40
2008,06,25,04,09,9.40
2008,06,25,04,10,9.40
2008,06,25,04,11,9.40
2008,06,25,04,12,9.40
2008,06,25,04,13,9.30
2008,06,25,04,14,9.30
2008,06,25,04,15,9.30
2008,06,25,04,16,9.30
2008,06,25,04,17,9.30
2008,06,25,04,18,9.20
2008,06,25,04,19,9.20
2008,06,25,04,20,9.20
2008,06,25,04,21,9.20
2008,06,25,04,22,9.20
2008,06,25,04,23,9.20
2008,06,25,04,24,9.20
2008,06,25,04,25,9.20
2008,06,25,04,26,9.20
2008,06,25,04,27,9.20
2008,06,25,04,28,9.20
2008,06,25,04,29,9.20
2008,06,25,04,30,9.20
2008,06,25,04,31,9.20
2008,06,25,04,32,9.20
2008,06,25,04,33,9.20
2008,06,25,04,34,9.20
2008,06,25,04,35,9.20
2008,06,25,04,36,9.10
2008,06,25,04,37,9.10
2008,06,25,04,38,9.10
2008,06,25,04,39,9.10
2008,06,25,04,40,9.00
2008,06,25,04,41,9.00
2008,06,25,04,42,9.00
2008,06,25,04,43,9.00
2008,06,25,04,44,9.00
2008,06,25,04,45,9.00
2008,06,25,04,46,9.00
2008,06,25,04,47,9.00
2008,06,25,04,48,9.00
2008,06,25,04,49,9.00
2008,06,25,04,50,9.00
2008,06,25,04,51,9.00
2008,06,25,04,52,9.00
2008,06,25,04,53,9.00
2008,06,25,04,54,9.00
2008,06,25,04,55,9.10
2008,06,25,04,56,9.10
2008,06,25,04,57,9.10
2008,06,25,04,58,9.10
2008,06,25,04,59,9.10
2008,06,25,05,00,9.10
2008,06,25,05,01,9.10
2008,06,25,05,02,9.10
2008,06,25,05,03,9.10
2008,06,25,05,04,9.10
2008,06,25,05,05,9.10
2008,06,25,05,06,9.10
2008,06,25,05,07,9.10
2008,06,25,05,08,9.10
2008,06,25,05,09,9.10
2008,06,25,05,10,9.10
2008,06,25,05,11,9.10
2008,06,25,05,12,9.10
2008,06,25,05,13,9.10
2008,06,25,05,14,9.10
2008,06,25,05,15,9.10
2008,06,25,05,16,9.10
2008,06,25,05,17,9.10
2008,06,25,05,18,9.10
2008,06,25,05,19,9.10
2008,06,25,05,20,9.10
2008,06,25,05,21,9.10
2008,06,25,05,22,9.10
2008,06,25,05,23,9.10
2008,06,25,05,24,9.10
2008,06,25,05,25,9.10
2008,06,25,05,26,9.10
2008,06,25,05,27,9.10
2008,06,25,05,28,9.10
2008,06,25,05,29,9.10
2008,06,25,05,30,9.10
2008,06,25,05,31,9.10
2008,06,25,05,32,9.10
2008,06,25,05,33,9.10
2008,06,25,05,34,9.10
2008,06,25,05,35,9.10
2008,06,25,05,36,9.10
2008,06,25,05,37,9.10
2008,06,25,05,38,9.10
2008,06,25,05,39,9.10
2008,06,25,05,40,9.10
2008,06,25,05,41,9.10
2008,06,25,05,42,9.10
2008,06,25,05,43,9.10
2008,06,25,05,44,9.10
2008,06,25,05,45,9.10
2008,06,25,05,46,9.10
2008,06,25,05,47,9.10
2008,06,25,05,48,9.10
2008,06,25,05,49,9.10
2008,06,25,05,50,9.10
2008,06,25,05,51,9.10
2008,06,25,05,52,9.10
2008,06,25,05,53,9.10
2008,06,25,05,54,9.10
2008,06,25,05,55,9.10
2008,06,25,05,56,9.10
2008,06,25,05,57,9.10
2008,06,25,05,58,9.10
2008,06,25,05,59,9.10
2008,06,25,06,00,9.10
2008,06,25,06,01,9.10
2008,06,25,06,02,9.20
2008,06,25,06,03,9.20
2008,06,25,06,04,9.20
2008,06,25,06,05,9.20
2008,06,25,06,06,9.20
2008,06,25,06,07,9.20
2008,06,25,06,08,9.20
2008,06,25,06,09,9.20
2008,06,25,06,10,9.20
2008,06,25,06,11,9.20
2008,06,25,06,12,9.20
2008,06,25,06,13,9.30
2008,06,25,06,14,9.30
2008,06,25,06,15,9.30
2008,06,25,06,16,9.40
2008,06,25,06,17,9.40
2008,06,25,06,18,9.40
2008,06,25,06,19,9.50
2008,06,25,06,20,9.50
2008,06,25,06,21,9.50
2008,06,25,06,22,9.60
2008,06,25,06,23,9.60
2008,06,25,06,24,9.60
2008,06,25,06,25,9.60
2008,06,25,06,26,9.70
2008,06,25,06,27,9.70
2008,06,25,06,28,9.70
2008,06,25,06,29,9.70
2008,06,25,06,30,9.70
2008,06,25,06,31,9.80
2008,06,25,06,32,9.80
2008,06,25,06,33,9.90
2008,06,25,06,34,9.90
2008,06,25,06,35,10.00
2008,06,25,06,36,10.10
2008,06,25,06,37,10.10
2008,06,25,06,38,10.20
2008,06,25,06,39,10.30
2008,06,25,06,40,10.30
2008,06,25,06,41,10.40
2008,06,25,06,42,10.40
2008,06,25,06,43,10.40
2008,06,25,06,44,10.40
2008,06,25,06,45,10.40
2008,06,25,06,46,10.40
2008,06,25,06,47,10.50
2008,06,25,06,48,10.60
2008,06,25,06,49,10.60
2008,06,25,06,50,10.60
2008,06,25,06,51,10.60
2008,06,25,06,52,10.60
2008,06,25,06,53,10.60
2008,06,25,06,54,10.60
2008,06,25,06,55,10.60
2008,06,25,06,56,10.70
2008,06,25,06,57,10.70
2008,06,25,06,58,10.70
2008,06,25,06,59,10.80
2008,06,25,07,00,10.80
2008,06,25,07,01,10.80
2008,06,25,07,02,10.80
2008,06,25,07,03,10.90
2008,06,25,07,04,10.90
2008,06,25,07,05,10.90
2008,06,25,07,06,10.90
2008,06,25,07,07,11.00
2008,06,25,07,08,11.10
2008,06,25,07,09,11.10
2008,06,25,07,10,11.20
2008,06,25,07,11,11.20
2008,06,25,07,12,11.20
2008,06,25,07,13,11.20
2008,06,25,07,14,11.20
2008,06,25,07,15,11.20
2008,06,25,07,16,11.20
2008,06,25,07,17,11.20
2008,06,25,07,18,11.30
2008,06,25,07,19,11.30
2008,06,25,07,20,11.40
2008,06,25,07,21,11.40
2008,06,25,07,22,11.50
2008,06,25,07,23,11.60
2008,06,25,07,24,11.70
2008,06,25,07,25,11.80
2008,06,25,07,26,11.90
2008,06,25,07,27,12.00
2008,06,25,07,28,12.10
2008,06,25,07,29,12.20
2008,06,25,07,30,12.20
2008,06,25,07,31,12.30
2008,06,25,07,32,12.40
2008,06,25,07,33,12.50
2008,06,25,07,34,12.70
2008,06,25,07,35,12.80
2008,06,25,07,36,12.80
2008,06,25,07,37,12.80
2008,06,25,07,38,12.90
2008,06,25,07,39,12.90
2008,06,25,07,40,12.90
2008,06,25,07,41,12.80
2008,06,25,07,42,12.80
2008,06,25,07,43,12.80
2008,06,25,07,44,12.80
2008,06,25,07,45,12.80
2008,06,25,07,46,12.80
2008,06,25,07,47,12.80
2008,06,25,07,48,12.80
2008,06,25,07,49,12.80
2008,06,25,07,50,12.90
2008,06,25,07,51,12.90
2008,06,25,07,52,12.90
2008,06,25,07,53,13.00
2008,06,25,07,54,13.00
2008,06,25,07,55,13.00
2008,06,25,07,56,13.10
2008,06,25,07,57,13.10
2008,06,25,07,58,13.20
2008,06,25,07,59,13.20
2008,06,25,08,00,13.30
2008,06,25,08,01,13.30
2008,06,25,08,02,13.40
2008,06,25,08,03,13.50
2008,06,25,08,04,13.60
2008,06,25,08,05,13.70
2008,06,25,08,06,13.80
2008,06,25,08,07,13.90
2008,06,25,08,08,14.00
2008,06,25,08,09,14.00
2008,06,25,08,10,14.00
2008,06,25,08,11,14.00
2008,06,25,08,12,14.00
2008,06,25,08,13,14.00
2008,06,25,08,14,14.10
2008,06,25,08,15,14.10
2008,06,25,08,16,14.10
2008,06,25,08,17,14.20
2008,06,25,08,18,14.20
2008,06,25,08,19,14.20
2008,06,25,08,20,14.20
2008,06,25,08,21,14.20
2008,06,25,08,22,14.20
2008,06,25,08,23,14.20
2008,06,25,08,24,14.30
2008,06,25,08,25,14.40
2008,06,25,08,26,14.40
2008,06,25,08,27,14.50
2008,06,25,08,28,14.60
2008,06,25,08,29,14.60
2008,06,25,08,30,14.70
2008,06,25,08,31,14.70
2008,06,25,08,32,14.80
2008,06,25,08,33,14.80
2008,06,25,08,34,14.80
2008,06,25,08,35,14.80
2008,06,25,08,36,14.80
2008,06,25,08,37,14.90
2008,06,25,08,38,15.00
2008,06,25,08,39,15.10
2008,06,25,08,40,15.20
2008,06,25,08,41,15.20
2008,06,25,08,42,15.20
2008,06,25,08,43,15.10
2008,06,25,08,44,15.10
2008,06,25,08,45,15.00
2008,06,25,08,46,15.00
2008,06,25,08,47,14.80
2008,06,25,08,48,14.70
2008,06,25,08,49,14.60
2008,06,25,08,50,14.50
2008,06,25,08,51,14.30
2008,06,25,08,52,14.20
2008,06,25,08,53,14.20
2008,06,25,08,54,14.20
2008,06,25,08,55,14.20
2008,06,25,08,56,14.20
2008,06,25,08,57,14.30
2008,06,25,08,58,14.30
2008,06,25,08,59,14.30
2008,06,25,09,00,14.40
2008,06,25,09,01,14.50
2008,06,25,09,02,14.50
2008,06,25,09,03,14.40
2008,06,25,09,04,14.30
2008,06,25,09,05,14.20
2008,06,25,09,06,14.20
2008,06,25,09,07,14.30
2008,06,25,09,08,14.20
2008,06,25,09,09,14.30
2008,06,25,09,10,14.30
2008,06,25,09,11,14.30
2008,06,25,09,12,14.40
2008,06,25,09,13,14.40
2008,06,25,09,14,14.40
2008,06,25,09,15,14.40
2008,06,25,09,16,14.40
2008,06,25,09,17,14.40
2008,06,25,09,18,14.30
2008,06,25,09,19,14.20
2008,06,25,09,20,14.20
2008,06,25,09,21,14.20
2008,06,25,09,22,14.20
2008,06,25,09,23,14.30
2008,06,25,09,24,14.40
2008,06,25,09,25,14.50
2008,06,25,09,26,14.60
2008,06,25,09,27,14.60
2008,06,25,09,28,14.50
2008,06,25,09,29,14.60
2008,06,25,09,30,14.60
2008,06,25,09,31,14.70
2008,06,25,09,32,14.70
2008,06,25,09,33,14.80
2008,06,25,09,34,14.80
2008,06,25,09,35,14.90
2008,06,25,09,36,14.90
2008,06,25,09,37,14.90
2008,06,25,09,38,15.00
2008,06,25,09,39,15.00
2008,06,25,09,40,15.10
2008,06,25,09,41,15.10
2008,06,25,09,42,15.10
2008,06,25,09,43,15.10
2008,06,25,09,44,15.10
2008,06,25,09,45,15.00
2008,06,25,09,46,15.00
2008,06,25,09,47,14.90
2008,06,25,09,48,14.80
2008,06,25,09,49,14.80
2008,06,25,09,50,14.80
2008,06,25,09,51,14.80
2008,06,25,09,52,14.80
2008,06,25,09,53,14.90
2008,06,25,09,54,14.90
2008,06,25,09,55,15.00
2008,06,25,09,56,15.10
2008,06,25,09,57,15.20
2008,06,25,09,58,15.30
2008,06,25,09,59,15.30
2008,06,25,10,00,15.40
2008,06,25,10,01,15.50
2008,06,25,10,02,15.50
2008,06,25,10,03,15.60
2008,06,25,10,04,15.70
2008,06,25,10,05,15.70
2008,06,25,10,06,15.70
2008,06,25,10,07,15.60
2008,06,25,10,08,15.40
2008,06,25,10,09,15.20
2008,06,25,10,10,15.00
2008,06,25,10,11,14.80
2008,06,25,10,12,14.70
2008,06,25,10,13,14.60
2008,06,25,10,14,14.60
2008,06,25,10,15,14.50
2008,06,25,10,16,14.60
2008,06,25,10,17,14.70
2008,06,25,10,18,14.80
2008,06,25,10,19,14.70
2008,06,25,10,20,14.70
2008,06,25,10,21,14.60
2008,06,25,10,22,14.60
2008,06,25,10,23,14.50
2008,06,25,10,24,14.50
2008,06,25,10,25,14.50
2008,06,25,10,26,14.50
2008,06,25,10,27,14.50
2008,06,25,10,28,14.60
2008,06,25,10,29,14.60
2008,06,25,10,30,14.70
2008,06,25,10,31,14.70
2008,06,25,10,32,14.80
2008,06,25,10,33,14.90
2008,06,25,10,34,14.90
2008,06,25,10,35,14.90
2008,06,25,10,36,14.90
2008,06,25,10,37,14.90
2008,06,25,10,38,14.90
2008,06,25,10,39,15.00
2008,06,25,10,40,15.10
2008,06,25,10,41,15.10
2008,06,25,10,42,15.10
2008,06,25,10,43,15.10
2008,06,25,10,44,15.20
2008,06,25,10,45,15.20
2008,06,25,10,46,15.20
2008,06,25,10,47,15.20
2008,06,25,10,48,15.10
2008,06,25,10,49,15.10
2008,06,25,10,50,15.30
2008,06,25,10,51,15.40
2008,06,25,10,52,15.50
2008,06,25,10,53,15.60
2008,06,25,10,54,15.70
2008,06,25,10,55,15.80
2008,06,25,10,56,15.80
2008,06,25,10,57,15.90
2008,06,25,10,58,15.80
2008,06,25,10,59,15.80
2008,06,25,11,00,15.70
2008,06,25,11,01,15.70
2008,06,25,11,02,15.60
2008,06,25,11,03,15.60
2008,06,25,11,04,15.70
2008,06,25,11,05,15.70
2008,06,25,11,06,15.80
2008,06,25,11,07,15.90
2008,06,25,11,08,15.90
2008,06,25,11,09,15.80
2008,06,25,11,10,15.80
2008,06,25,11,11,15.80
2008,06,25,11,12,15.90
2008,06,25,11,13,15.90
2008,06,25,11,14,16.00
2008,06,25,11,15,16.10
2008,06,25,11,16,16.20
2008,06,25,11,17,16.30
2008,06,25,11,18,16.30
2008,06,25,11,19,16.20
2008,06,25,11,20,16.20
2008,06,25,11,21,16.30
2008,06,25,11,22,16.40
2008,06,25,11,23,16.40
2008,06,25,11,24,16.30
2008,06,25,11,25,16.40
2008,06,25,11,26,16.40
2008,06,25,11,27,16.40
2008,06,25,11,28,16.40
2008,06,25,11,29,16.40
2008,06,25,11,30,16.40
2008,06,25,11,31,16.40
2008,06,25,11,32,16.50
2008,06,25,11,33,16.50
2008,06,25,11,34,16.40
2008,06,25,11,35,16.30
2008,06,25,11,36,16.20
2008,06,25,11,37,16.20
2008,06,25,11,38,16.20
2008,06,25,11,39,16.30
2008,06,25,11,40,16.40
2008,06,25,11,41,16.60
2008,06,25,11,42,16.60
2008,06,25,11,43,16.70
2008,06,25,11,44,16.70
2008,06,25,11,45,16.70
2008,06,25,11,46,16.70
2008,06,25,11,47,16.50
2008,06,25,11,48,16.40
2008,06,25,11,49,16.30
2008,06,25,11,50,16.20
2008,06,25,11,51,16.20
2008,06,25,11,52,16.10
2008,06,25,11,53,16.00
2008,06,25,11,54,15.90
2008,06,25,11,55,15.80
2008,06,25,11,56,15.80
2008,06,25,11,57,15.80
2008,06,25,11,58,15.80
2008,06,25,11,59,15.80
2008,06,25,12,00,15.80
2008,06,25,12,01,15.80
2008,06,25,12,02,15.80
2008,06,25,12,03,15.90
2008,06,25,12,04,16.00
2008,06,25,12,05,16.10
2008,06,25,12,06,16.10
2008,06,25,12,07,16.10
2008,06,25,12,08,16.10
2008,06,25,12,09,16.20
2008,06,25,12,10,16.20
2008,06,25,12,11,16.20
2008,06,25,12,12,16.30
2008,06,25,12,13,16.30
2008,06,25,12,14,16.40
2008,06,25,12,15,16.30
2008,06,25,12,16,16.30
2008,06,25,12,17,16.20
2008,06,25,12,18,16.20
2008,06,25,12,19,16.20
2008,06,25,12,20,16.20
2008,06,25,12,21,16.20
2008,06,25,12,22,16.30
2008,06,25,12,23,16.30
2008,06,25,12,24,16.40
2008,06,25,12,25,16.40
2008,06,25,12,26,16.50
2008,06,25,12,27,16.60
2008,06,25,12,28,16.70
2008,06,25,12,29,16.70
2008,06,25,12,30,16.70
2008,06,25,12,31,16.60
2008,06,25,12,32,16.60
2008,06,25,12,33,16.60
2008,06,25,12,34,16.60
2008,06,25,12,35,16.60
2008,06,25,12,36,16.50
2008,06,25,12,37,16.40
2008,06,25,12,38,16.30
2008,06,25,12,39,16.20
2008,06,25,12,40,16.10
2008,06,25,12,41,16.10
2008,06,25,12,42,16.20
2008,06,25,12,43,16.30
2008,06,25,12,44,16.40
2008,06,25,12,45,16.40
2008,06,25,12,46,16.40
2008,06,25,12,47,16.40
2008,06,25,12,48,16.40
2008,06,25,12,49,16.50
2008,06,25,12,50,16.60
2008,06,25,12,51,16.70
2008,06,25,12,52,16.60
2008,06,25,12,53,16.60
2008,06,25,12,54,16.60
2008,06,25,12,55,16.50
2008,06,25,12,56,16.50
2008,06,25,12,57,16.70
2008,06,25,12,58,16.70
2008,06,25,12,59,16.70
2008,06,25,13,00,16.70
2008,06,25,13,01,16.80
2008,06,25,13,02,16.80
2008,06,25,13,03,16.80
2008,06,25,13,04,16.80
2008,06,25,13,05,16.70
2008,06,25,13,06,16.80
2008,06,25,13,07,16.90
2008,06,25,13,08,17.10
2008,06,25,13,09,17.20
2008,06,25,13,10,17.20
2008,06,25,13,11,17.30
2008,06,25,13,12,17.40
2008,06,25,13,13,17.50
2008,06,25,13,14,17.50
2008,06,25,13,15,17.40
2008,06,25,13,16,17.20
2008,06,25,13,17,17.20
2008,06,25,13,18,17.20
2008,06,25,13,19,17.20
2008,06,25,13,20,17.10
2008,06,25,13,21,17.20
2008,06,25,13,22,17.20
2008,06,25,13,23,17.30
2008,06,25,13,24,17.30
2008,06,25,13,25,17.30
2008,06,25,13,26,17.30
2008,06,25,13,27,17.30
2008,06,25,13,28,17.40
2008,06,25,13,29,17.40
2008,06,25,13,30,17.50
2008,06,25,13,31,17.60
2008,06,25,13,32,17.60
2008,06,25,13,33,17.60
2008,06,25,13,34,17.70
2008,06,25,13,35,17.80
2008,06,25,13,36,17.90
2008,06,25,13,37,17.90
2008,06,25,13,38,17.90
2008,06,25,13,39,18.00
2008,06,25,13,40,18.00
2008,06,25,13,41,18.00
2008,06,25,13,42,18.10
2008,06,25,13,43,18.20
2008,06,25,13,44,18.20
2008,06,25,13,45,18.10
2008,06,25,13,46,17.90
2008,06,25,13,47,17.90
2008,06,25,13,48,17.90
2008,06,25,13,49,17.90
2008,06,25,13,50,17.90
2008,06,25,13,51,17.90
2008,06,25,13,52,17.90
2008,06,25,13,53,18.00
2008,06,25,13,54,18.20
2008,06,25,13,55,18.30
2008,06,25,13,56,18.50
2008,06,25,13,57,18.60
2008,06,25,13,58,18.70
2008,06,25,13,59,18.80
2008,06,25,14,00,18.80
2008,06,25,14,01,18.70
2008,06,25,14,02,18.70
2008,06,25,14,03,18.70
2008,06,25,14,04,18.60
2008,06,25,14,05,18.60
2008,06,25,14,06,18.60
2008,06,25,14,07,18.50
2008,06,25,14,08,18.40
2008,06,25,14,09,18.50
2008,06,25,14,10,18.50
2008,06,25,14,11,18.70
2008,06,25,14,12,18.90
2008,06,25,14,13,19.00
2008,06,25,14,14,19.10
2008,06,25,14,15,19.10
2008,06,25,14,16,19.10
2008,06,25,14,17,19.00
2008,06,25,14,18,18.90
2008,06,25,14,19,18.80
2008,06,25,14,20,18.70
2008,06,25,14,21,18.80
2008,06,25,14,22,18.90
2008,06,25,14,23,18.90
2008,06,25,14,24,18.90
2008,06,25,14,25,18.90
2008,06,25,14,26,18.90
2008,06,25,14,27,18.90
2008,06,25,14,28,19.00
2008,06,25,14,29,19.10
2008,06,25,14,30,19.00
2008,06,25,14,31,18.90
2008,06,25,14,32,18.90
2008,06,25,14,33,19.00
2008,06,25,14,34,19.10
2008,06,25,14,35,18.90
2008,06,25,14,36,18.80
2008,06,25,14,37,18.70
2008,06,25,14,38,18.60
2008,06,25,14,39,18.60
2008,06,25,14,40,18.50
2008,06,25,14,41,18.50
2008,06,25,14,42,18.60
2008,06,25,14,43,18.60
2008,06,25,14,44,18.60
2008,06,25,14,45,18.70
2008,06,25,14,46,18.70
2008,06,25,14,47,18.70
2008,06,25,14,48,18.80
2008,06,25,14,49,18.90
2008,06,25,14,50,18.80
2008,06,25,14,51,18.90
2008,06,25,14,52,18.90
2008,06,25,14,53,19.00
2008,06,25,14,54,18.90
2008,06,25,14,55,18.80
2008,06,25,14,56,18.70
2008,06,25,14,57,18.50
2008,06,25,14,58,18.40
2008,06,25,14,59,18.30
2008,06,25,15,00,18.30
2008,06,25,15,01,18.20
2008,06,25,15,02,18.20
2008,06,25,15,03,18.20
2008,06,25,15,04,18.20
2008,06,25,15,05,18.20
2008,06,25,15,06,18.20
2008,06,25,15,07,18.20
2008,06,25,15,08,18.20
2008,06,25,15,09,18.20
2008,06,25,15,10,18.20
2008,06,25,15,11,18.20
2008,06,25,15,12,18.20
2008,06,25,15,13,18.10
2008,06,25,15,14,18.10
2008,06,25,15,15,18.10
2008,06,25,15,16,18.20
2008,06,25,15,17,18.00
2008,06,25,15,18,17.90
2008,06,25,15,19,17.80
2008,06,25,15,20,17.50
2008,06,25,15,21,17.30
2008,06,25,15,22,17.20
2008,06,25,15,23,17.20
2008,06,25,15,24,17.20
2008,06,25,15,25,17.30
2008,06,25,15,26,17.30
2008,06,25,15,27,17.30
2008,06,25,15,28,17.40
2008,06,25,15,29,17.40
2008,06,25,15,30,17.40
2008,06,25,15,31,17.30
2008,06,25,15,32,17.20
2008,06,25,15,33,17.10
2008,06,25,15,34,17.00
2008,06,25,15,35,17.00
2008,06,25,15,36,17.00
2008,06,25,15,37,17.00
2008,06,25,15,38,17.10
2008,06,25,15,39,17.10
2008,06,25,15,40,17.20
2008,06,25,15,41,17.30
2008,06,25,15,42,17.30
2008,06,25,15,43,17.30
2008,06,25,15,44,17.30
2008,06,25,15,45,17.20
2008,06,25,15,46,17.20
2008,06,25,15,47,17.20
2008,06,25,15,48,17.20
2008,06,25,15,49,17.20
2008,06,25,15,50,17.30
2008,06,25,15,51,17.40
2008,06,25,15,52,17.50
2008,06,25,15,53,17.60
2008,06,25,15,54,17.80
2008,06,25,15,55,17.90
2008,06,25,15,56,17.90
2008,06,25,15,57,18.00
2008,06,25,15,58,17.90
2008,06,25,15,59,18.00
2008,06,25,16,00,18.10
2008,06,25,16,01,18.20
2008,06,25,16,02,18.20
2008,06,25,16,03,18.10
2008,06,25,16,04,18.00
2008,06,25,16,05,17.90
2008,06,25,16,06,17.90
2008,06,25,16,07,17.80
2008,06,25,16,08,17.80
2008,06,25,16,09,17.70
2008,06,25,16,10,17.70
2008,06,25,16,11,17.70
2008,06,25,16,12,17.70
2008,06,25,16,13,17.70
2008,06,25,16,14,17.70
2008,06,25,16,15,17.60
2008,06,25,16,16,17.70
2008,06,25,16,17,17.80
2008,06,25,16,18,17.80
2008,06,25,16,19,17.80
2008,06,25,16,20,17.80
2008,06,25,16,21,17.80
2008,06,25,16,22,17.70
2008,06,25,16,23,17.70
2008,06,25,16,24,17.80
2008,06,25,16,25,17.80
2008,06,25,16,26,17.80
2008,06,25,16,27,17.80
2008,06,25,16,28,17.90
2008,06,25,16,29,17.90
2008,06,25,16,30,18.10
2008,06,25,16,31,18.20
2008,06,25,16,32,18.40
2008,06,25,16,33,18.40
2008,06,25,16,34,18.30
2008,06,25,16,35,18.30
2008,06,25,16,36,18.30
2008,06,25,16,37,18.30
2008,06,25,16,38,18.40
2008,06,25,16,39,18.40
2008,06,25,16,40,18.40
2008,06,25,16,41,18.30
2008,06,25,16,42,18.30
2008,06,25,16,43,18.30
2008,06,25,16,44,18.30
2008,06,25,16,45,18.20
2008,06,25,16,46,18.20
2008,06,25,16,47,18.20
2008,06,25,16,48,18.20
2008,06,25,16,49,18.20
2008,06,25,16,50,18.10
2008,06,25,16,51,17.90
2008,06,25,16,52,17.90
2008,06,25,16,53,17.90
2008,06,25,16,54,17.90
2008,06,25,16,55,17.90
2008,06,25,16,56,17.90
2008,06,25,16,57,17.90
2008,06,25,16,58,17.90
2008,06,25,16,59,17.80
2008,06,25,17,00,17.80
2008,06,25,17,01,17.70
2008,06,25,17,02,17.70
2008,06,25,17,03,17.70
2008,06,25,17,04,17.70
2008,06,25,17,05,17.90
2008,06,25,17,06,18.00
2008,06,25,17,07,18.10
2008,06,25,17,08,18.20
2008,06,25,17,09,18.30
2008,06,25,17,10,18.30
2008,06,25,17,11,18.40
2008,06,25,17,12,18.50
2008,06,25,17,13,18.50
2008,06,25,17,14,18.50
2008,06,25,17,15,18.40
2008,06,25,17,16,18.30
2008,06,25,17,17,18.20
2008,06,25,17,18,18.20
2008,06,25,17,19,18.10
2008,06,25,17,20,18.10
2008,06,25,17,21,18.10
2008,06,25,17,22,18.10
2008,06,25,17,23,18.20
2008,06,25,17,24,18.20
2008,06,25,17,25,18.20
2008,06,25,17,26,18.20